Location: ????????
(55.3155°N, 39.2900°E)
Time: 18:32:24
(UTC+00:00)

ACS3 Solar Sail - Pass Details

Date: 23 November 2025
Orbit: 889 x 1003 km, 97.3° (Epoch: 06 December)

Event Time Altitude Azimuth Distance (km) Brightness Sun altitude
Rises 01:05:12 0° 13° (NNE) 3,587 5.1 -34.1°
Reaches altitude 10° 01:07:36 10° 12° (NNE) 2,656 4.3 -33.8°
Enters shadow 01:10:47 34° 9° (N) 1,509 2.9 -33.3°
